| time (UTC) | temp F | wind direction | speed MPH | gust MPH | rain 1hr in | rain 24hr in | rain mn in | humidity % | barometer mb |
| 20260901171201 | 96 | 334 | 0.0 | 0.0 | 0.00 | 0.00 | 0.00 | 42 | 1019.4 |
| 20260901170701 | 96 | 25 | 1.0 | 2.0 | 0.00 | 0.00 | 0.00 | 40 | 1019.8 |
| 20260901170155 | 96 | 317 | 3.0 | 5.0 | 0.00 | 0.00 | 0.00 | 42 | 1019.8 |
| 20260901165654 | 95 | 303 | 0.0 | 0.0 | 0.00 | 0.00 | 0.00 | 42 | 1019.8 |
| 20260901165149 | 96 | 149 | 1.0 | 2.0 | 0.00 | 0.00 | 0.00 | 42 | 1019.8 |
| 20260901164646 | 95 | 179 | 3.0 | 3.0 | 0.00 | 0.00 | 0.00 | 42 | 1019.8 |
| 20260901164140 | 96 | 190 | 4.0 | 5.0 | 0.00 | 0.00 | 0.00 | 42 | 1020.1 |
| 20260901163636 | 95 | 85 | 2.0 | 3.0 | 0.00 | 0.00 | 0.00 | 42 | 1020.1 |
| 20260901163134 | 95 | 44 | 2.0 | 3.0 | 0.00 | 0.00 | 0.00 | 42 | 1019.8 |
| 20260901162630 | 95 | 227 | 3.0 | 3.0 | 0.00 | 0.00 | 0.00 | 43 | 1020.1 |
| 20260901162129 | 95 | 54 | 1.0 | 1.0 | 0.00 | 0.00 | 0.00 | 43 | 1019.8 |
| 20260901161628 | 94 | 246 | 2.0 | 2.0 | 0.00 | 0.00 | 0.00 | 44 | 1020.1 |
| 20260901161128 | 94 | 17 | 0.0 | 1.0 | 0.00 | 0.00 | 0.00 | 44 | 1020.1 |
| 20260901160625 | 94 | 338 | 2.0 | 2.0 | 0.00 | 0.00 | 0.00 | 44 | 1019.8 |
| 20260901160119 | 94 | 21 | 3.0 | 3.0 | 0.00 | 0.00 | 0.00 | 44 | 1019.8 |
| 20260901155618 | 94 | 139 | 2.0 | 3.0 | 0.00 | 0.00 | 0.00 | 44 | 1019.8 |
| 20260901155114 | 93 | 181 | 2.0 | 2.0 | 0.00 | 0.00 | 0.00 | 45 | 1019.8 |
| 20260901154614 | 93 | 182 | 3.0 | 5.0 | 0.00 | 0.00 | 0.00 | 45 | 1020.1 |
| 20260901154108 | 93 | 298 | 1.0 | 1.0 | 0.00 | 0.00 | 0.00 | 45 | 1019.8 |
| 20260901153604 | 93 | 230 | 2.0 | 3.0 | 0.00 | 0.00 | 0.00 | 46 | 1020.1 |
| 20260901153103 | 92 | 330 | 0.0 | 0.0 | 0.00 | 0.00 | 0.00 | 47 | 1019.8 |
| 20260901152558 | 91 | 170 | 5.0 | 6.0 | 0.00 | 0.00 | 0.00 | 49 | 1020.1 |
| 20260901152056 | 91 | 312 | 2.0 | 3.0 | 0.00 | 0.00 | 0.00 | 50 | 1020.1 |
| 20260901151553 | 91 | 314 | 1.0 | 1.0 | 0.00 | 0.00 | 0.00 | 50 | 1019.8 |
| 20260901151047 | 90 | 237 | 2.0 | 2.0 | 0.00 | 0.00 | 0.00 | 51 | 1020.1 |
| 20260901150544 | 89 | 125 | 4.0 | 3.0 | 0.00 | 0.00 | 0.00 | 52 | 1020.1 |
| 20260901150038 | 89 | 169 | 3.0 | 3.0 | 0.00 | 0.00 | 0.00 | 52 | 1020.1 |
| 20260901145537 | 89 | 147 | 3.0 | 5.0 | 0.00 | 0.00 | 0.00 | 53 | 1019.8 |
| 20260901145031 | 89 | 326 | 1.0 | 1.0 | 0.00 | 0.00 | 0.00 | 53 | 1019.8 |
| 20260901144526 | 89 | 189 | 2.0 | 2.0 | 0.00 | 0.00 | 0.00 | 53 | 1020.1 |
| 20260901144021 | 89 | 218 | 2.0 | 2.0 | 0.00 | 0.00 | 0.00 | 53 | 1019.8 |
| 20260901143516 | 88 | 52 | 2.0 | 2.0 | 0.00 | 0.00 | 0.00 | 54 | 1020.1 |
| 20260901143013 | 86 | 294 | 0.0 | 0.0 | 0.00 | 0.00 | 0.00 | 57 | 1020.1 |
| 20260901142507 | 86 | 328 | 0.0 | 0.0 | 0.00 | 0.00 | 0.00 | 60 | 1020.1 |
| 20260901142002 | 86 | 122 | 2.0 | 2.0 | 0.00 | 0.00 | 0.00 | 60 | 1020.1 |
| 20260901141502 | 85 | 324 | 0.0 | 0.0 | 0.00 | 0.00 | 0.00 | 63 | 1020.1 |
| 20260901140958 | 84 | 350 | 0.0 | 0.0 | 0.00 | 0.00 | 0.00 | 63 | 1019.8 |
| 20260901140455 | 82 | 347 | 0.0 | 0.0 | 0.00 | 0.00 | 0.00 | 68 | 1020.1 |
| 20260901135949 | 81 | 349 | 0.0 | 0.0 | 0.00 | 0.00 | 0.00 | 71 | 1020.1 |
| 20260901135444 | 80 | 260 | 0.0 | 0.0 | 0.00 | 0.00 | 0.00 | 72 | 1020.1 |
| 20260901134940 | 80 | 260 | 0.0 | 0.0 | 0.00 | 0.00 | 0.00 | 71 | 1020.1 |
| 20260901134436 | 80 | 260 | 0.0 | 0.0 | 0.00 | 0.00 | 0.00 | 71 | 1020.1 |
| 20260901133936 | 78 | 260 | 1.0 | 1.0 | 0.00 | 0.00 | 0.00 | 72 | 1020.1 |
| 20260901133435 | 77 | 260 | 0.0 | 0.0 | 0.00 | 0.00 | 0.00 | 73 | 1020.1 |
| 20260901132934 | 77 | 260 | 0.0 | 0.0 | 0.00 | 0.00 | 0.00 | 74 | 1020.1 |
| 20260901132428 | 77 | 260 | 0.0 | 0.0 | 0.00 | 0.00 | 0.00 | 73 | 1020.1 |
| 20260901131927 | 75 | 260 | 0.0 | 0.0 | 0.00 | 0.00 | 0.00 | 76 | 1020.1 |
| 20260901131427 | 74 | 260 | 0.0 | 0.0 | 0.00 | 0.00 | 0.00 | 79 | 1020.1 |
| 20260901130923 | 73 | 260 | 0.0 | 0.0 | 0.00 | 0.00 | 0.00 | 80 | 1019.8 |
| 20260901130423 | 72 | 260 | 0.0 | 0.0 | 0.00 | 0.00 | 0.00 | 81 | 1019.8 |
| 20260901125920 | 71 | 260 | 0.0 | 0.0 | 0.00 | 0.00 | 0.00 | 83 | 1019.8 |
| 20260901125415 | 71 | 260 | 0.0 | 0.0 | 0.00 | 0.00 | 0.00 | 84 | 1019.8 |
| 20260901124915 | 71 | 281 | 0.0 | 0.0 | 0.00 | 0.00 | 0.00 | 84 | 1019.8 |
| 20260901124410 | 70 | 283 | 0.0 | 0.0 | 0.00 | 0.00 | 0.00 | 85 | 1019.8 |
| 20260901123905 | 69 | 283 | 1.0 | 0.0 | 0.00 | 0.00 | 0.00 | 87 | 1019.8 |
| 20260901123400 | 68 | 312 | 0.0 | 0.0 | 0.00 | 0.00 | 0.00 | 90 | 1019.8 |
| 20260901122858 | 68 | 312 | 0.0 | 0.0 | 0.00 | 0.00 | 0.00 | 90 | 1019.8 |
| 20260901122353 | 68 | 312 | 0.0 | 0.0 | 0.00 | 0.00 | 0.00 | 91 | 1019.4 |
| 20260901121852 | 68 | 313 | 0.0 | 0.0 | 0.00 | 0.00 | 0.00 | 92 | 1019.8 |
| 20260901121347 | 67 | 313 | 0.0 | 0.0 | 0.00 | 0.00 | 0.00 | 92 | 1019.8 |
| 20260901120842 | 67 | 313 | 0.0 | 0.0 | 0.00 | 0.00 | 0.00 | 93 | 1019.4 |
| 20260901120336 | 67 | 312 | 0.0 | 0.0 | 0.00 | 0.00 | 0.00 | 93 | 1019.4 |
| 20260901115832 | 67 | 312 | 0.0 | 0.0 | 0.00 | 0.00 | 0.00 | 93 | 1019.1 |
| 20260901115327 | 67 | 312 | 0.0 | 0.0 | 0.00 | 0.00 | 0.00 | 93 | 1019.1 |
| 20260901114825 | 67 | 312 | 0.0 | 0.0 | 0.00 | 0.00 | 0.00 | 93 | 1019.4 |
| 20260901114320 | 67 | 312 | 0.0 | 0.0 | 0.00 | 0.00 | 0.00 | 93 | 1019.1 |
| 20260901113818 | 67 | 312 | 0.0 | 0.0 | 0.00 | 0.00 | 0.00 | 93 | 1019.1 |
| 20260901113312 | 67 | 312 | 0.0 | 0.0 | 0.00 | 0.00 | 0.00 | 93 | 1019.1 |
| 20260901112807 | 67 | 312 | 0.0 | 0.0 | 0.00 | 0.00 | 0.00 | 92 | 1019.1 |
| 20260901112306 | 67 | 312 | 0.0 | 0.0 | 0.00 | 0.00 | 0.00 | 92 | 1019.1 |
| 20260901111757 | 67 | 313 | 0.0 | 0.0 | 0.00 | 0.00 | 0.00 | 92 | 1019.1 |
| 20260901111256 | 67 | 313 | 0.0 | 0.0 | 0.00 | 0.00 | 0.00 | 92 | 1019.1 |
| 20260901110755 | 67 | 315 | 0.0 | 0.0 | 0.00 | 0.00 | 0.00 | 93 | 1019.1 |
| 20260901110250 | 67 | 315 | 0.0 | 0.0 | 0.00 | 0.00 | 0.00 | 93 | 1018.8 |
| 20260901105747 | 67 | 315 | 0.0 | 0.0 | 0.00 | 0.00 | 0.00 | 93 | 1019.1 |
| 20260901105246 | 67 | 317 | 0.0 | 0.0 | 0.00 | 0.00 | 0.00 | 92 | 1018.8 |
| 20260901104742 | 67 | 317 | 0.0 | 0.0 | 0.00 | 0.00 | 0.00 | 92 | 1019.1 |
| 20260901104237 | 67 | 317 | 0.0 | 0.0 | 0.00 | 0.00 | 0.00 | 92 | 1019.1 |
| 20260901103737 | 67 | 317 | 0.0 | 0.0 | 0.00 | 0.00 | 0.00 | 92 | 1019.1 |
| 20260901103232 | 67 | 317 | 0.0 | 0.0 | 0.00 | 0.00 | 0.00 | 92 | 1018.8 |
| 20260901102726 | 67 | 317 | 0.0 | 0.0 | 0.00 | 0.00 | 0.00 | 92 | 1018.8 |
| 20260901102226 | 67 | 317 | 0.0 | 0.0 | 0.00 | 0.00 | 0.00 | 92 | 1018.4 |
| 20260901101723 | 68 | 317 | 0.0 | 0.0 | 0.00 | 0.00 | 0.00 | 92 | 1019.1 |
| 20260901101222 | 68 | 318 | 0.0 | 0.0 | 0.00 | 0.00 | 0.00 | 92 | 1019.1 |
| 20260901100716 | 68 | 319 | 0.0 | 0.0 | 0.00 | 0.00 | 0.00 | 91 | 1018.8 |
| 20260901100212 | 68 | 285 | 0.0 | 0.0 | 0.00 | 0.00 | 0.00 | 91 | 1018.8 |
| 20260901095710 | 68 | 285 | 0.0 | 0.0 | 0.00 | 0.00 | 0.00 | 92 | 1018.8 |
| 20260901095208 | 68 | 285 | 0.0 | 0.0 | 0.00 | 0.00 | 0.00 | 92 | 1018.8 |
| 20260901094707 | 68 | 285 | 0.0 | 0.0 | 0.00 | 0.00 | 0.00 | 92 | 1018.8 |
| 20260901094203 | 68 | 285 | 0.0 | 0.0 | 0.00 | 0.00 | 0.00 | 92 | 1018.4 |
| 20260901093658 | 68 | 285 | 0.0 | 0.0 | 0.00 | 0.00 | 0.00 | 92 | 1018.4 |
| 20260901093156 | 68 | 285 | 0.0 | 0.0 | 0.00 | 0.00 | 0.00 | 92 | 1018.8 |
| 20260901092652 | 68 | 285 | 0.0 | 0.0 | 0.00 | 0.00 | 0.00 | 92 | 1018.4 |
| 20260901092148 | 68 | 285 | 0.0 | 0.0 | 0.00 | 0.00 | 0.00 | 91 | 1018.8 |
| 20260901091643 | 68 | 285 | 0.0 | 0.0 | 0.00 | 0.00 | 0.00 | 92 | 1018.4 |
| 20260901091138 | 68 | 285 | 0.0 | 0.0 | 0.00 | 0.00 | 0.00 | 92 | 1018.8 |
| 20260901090632 | 68 | 285 | 0.0 | 0.0 | 0.00 | 0.00 | 0.00 | 92 | 1018.4 |
| 20260901090128 | 68 | 285 | 0.0 | 0.0 | 0.00 | 0.00 | 0.00 | 92 | 1018.8 |
| 20260901085624 | 68 | 285 | 0.0 | 0.0 | 0.00 | 0.00 | 0.00 | 91 | 1018.4 |
| 20260901085120 | 68 | 285 | 0.0 | 0.0 | 0.00 | 0.00 | 0.00 | 91 | 1018.8 |
| 20260901084616 | 68 | 285 | 0.0 | 0.0 | 0.00 | 0.00 | 0.00 | 91 | 1018.4 |
| 20260901084112 | 69 | 285 | 0.0 | 0.0 | 0.00 | 0.00 | 0.00 | 90 | 1018.8 |
| 20260901083606 | 69 | 285 | 0.0 | 0.0 | 0.00 | 0.00 | 0.00 | 89 | 1018.8 |
| 20260901083104 | 69 | 285 | 0.0 | 0.0 | 0.00 | 0.00 | 0.00 | 89 | 1018.4 |
| 20260901082559 | 69 | 285 | 0.0 | 0.0 | 0.00 | 0.00 | 0.00 | 89 | 1018.4 |
| 20260901082055 | 69 | 286 | 0.0 | 0.0 | 0.00 | 0.00 | 0.00 | 89 | 1018.4 |
| 20260901081549 | 69 | 285 | 0.0 | 0.0 | 0.00 | 0.00 | 0.00 | 89 | 1018.4 |
| 20260901081044 | 69 | 286 | 0.0 | 0.0 | 0.00 | 0.00 | 0.00 | 89 | 1018.4 |
| 20260901080543 | 69 | 286 | 0.0 | 0.0 | 0.00 | 0.00 | 0.00 | 89 | 1018.4 |
| 20260901080037 | 69 | 285 | 0.0 | 0.0 | 0.00 | 0.00 | 0.00 | 89 | 1018.1 |
| 20260901075533 | 69 | 285 | 0.0 | 0.0 | 0.00 | 0.00 | 0.00 | 89 | 1018.4 |
| 20260901075032 | 69 | 285 | 0.0 | 0.0 | 0.00 | 0.00 | 0.00 | 89 | 1018.4 |
| 20260901074532 | 69 | 285 | 0.0 | 0.0 | 0.00 | 0.00 | 0.00 | 88 | 1018.4 |
| 20260901074027 | 69 | 285 | 0.0 | 0.0 | 0.00 | 0.00 | 0.00 | 88 | 1018.4 |
| 20260901073524 | 70 | 285 | 0.0 | 0.0 | 0.00 | 0.00 | 0.00 | 88 | 1018.4 |
| 20260901073019 | 70 | 285 | 0.0 | 0.0 | 0.00 | 0.00 | 0.00 | 87 | 1018.1 |
| 20260901072514 | 70 | 285 | 0.0 | 0.0 | 0.00 | 0.00 | 0.00 | 88 | 1018.1 |
| 20260901072009 | 70 | 285 | 0.0 | 0.0 | 0.00 | 0.00 | 0.00 | 88 | 1018.4 |
| 20260901071509 | 70 | 285 | 0.0 | 0.0 | 0.00 | 0.00 | 0.00 | 87 | 1018.1 |
| 20260901071007 | 70 | 285 | 0.0 | 0.0 | 0.00 | 0.00 | 0.00 | 87 | 1018.4 |
| 20260901070502 | 70 | 285 | 0.0 | 0.0 | 0.00 | 0.00 | 0.00 | 87 | 1018.4 |
| 20260901065955 | 70 | 285 | 0.0 | 0.0 | 0.00 | 0.00 | 0.00 | 87 | 1018.1 |
| 20260901065451 | 70 | 285 | 0.0 | 0.0 | 0.00 | 0.00 | 0.00 | 87 | 1018.4 |
| 20260901064940 | 70 | 285 | 0.0 | 0.0 | 0.00 | 0.00 | 0.00 | 87 | 1018.1 |
| 20260901064437 | 71 | 285 | 0.0 | 0.0 | 0.00 | 0.00 | 0.00 | 87 | 1018.4 |
| 20260901063934 | 71 | 285 | 0.0 | 0.0 | 0.00 | 0.00 | 0.00 | 86 | 1018.4 |
| 20260901063430 | 71 | 285 | 0.0 | 0.0 | 0.00 | 0.00 | 0.00 | 86 | 1018.4 |
| 20260901062926 | 71 | 285 | 0.0 | 0.0 | 0.00 | 0.00 | 0.00 | 86 | 1018.4 |
| 20260901062421 | 71 | 285 | 0.0 | 0.0 | 0.00 | 0.00 | 0.00 | 85 | 1018.4 |
| 20260901061917 | 71 | 285 | 0.0 | 0.0 | 0.00 | 0.00 | 0.00 | 85 | 1018.4 |
| 20260901061413 | 71 | 285 | 0.0 | 0.0 | 0.00 | 0.00 | 0.00 | 85 | 1018.1 |
| 20260901060908 | 71 | 285 | 0.0 | 0.0 | 0.00 | 0.00 | 0.00 | 85 | 1018.1 |
| 20260901060403 | 71 | 285 | 0.0 | 0.0 | 0.00 | 0.00 | 0.00 | 85 | 1018.1 |
| 20260901055902 | 72 | 285 | 0.0 | 0.0 | 0.00 | 0.00 | 0.00 | 85 | 1018.4 |
| 20260901055359 | 72 | 292 | 0.0 | 0.0 | 0.00 | 0.00 | 0.00 | 85 | 1018.4 |
| 20260901054855 | 71 | 292 | 0.0 | 0.0 | 0.00 | 0.00 | 0.00 | 85 | 1018.4 |
| 20260901054353 | 72 | 292 | 0.0 | 0.0 | 0.00 | 0.00 | 0.00 | 85 | 1018.1 |
| 20260901053848 | 72 | 292 | 0.0 | 0.0 | 0.00 | 0.00 | 0.00 | 85 | 1018.1 |
| 20260901053343 | 72 | 292 | 0.0 | 0.0 | 0.00 | 0.00 | 0.00 | 85 | 1018.1 |
| 20260901052839 | 72 | 292 | 0.0 | 0.0 | 0.00 | 0.00 | 0.00 | 84 | 1018.1 |
| 20260901052334 | 72 | 292 | 0.0 | 0.0 | 0.00 | 0.00 | 0.00 | 83 | 1018.1 |
| 20260901051832 | 73 | 296 | 0.0 | 0.0 | 0.00 | 0.00 | 0.00 | 83 | 1018.1 |
| 20260901051328 | 73 | 296 | 0.0 | 0.0 | 0.00 | 0.00 | 0.00 | 82 | 1017.6 |
| 20260901050823 | 73 | 296 | 0.0 | 0.0 | 0.00 | 0.00 | 0.00 | 82 | 1018.1 |
| 20260901050319 | 73 | 296 | 0.0 | 0.0 | 0.00 | 0.00 | 0.00 | 83 | 1018.1 |
| 20260901045814 | 73 | 296 | 0.0 | 0.0 | 0.00 | 0.00 | 0.00 | 83 | 1018.1 |
| 20260901045313 | 73 | 296 | 0.0 | 0.0 | 0.00 | 0.00 | 0.00 | 83 | 1018.1 |
| 20260901044808 | 73 | 296 | 0.0 | 0.0 | 0.00 | 0.00 | 0.00 | 82 | 1018.1 |
| 20260901044304 | 73 | 296 | 0.0 | 0.0 | 0.00 | 0.00 | 0.00 | 82 | 1017.6 |
| 20260901043800 | 73 | 296 | 0.0 | 0.0 | 0.00 | 0.00 | 0.00 | 82 | 1017.6 |
| 20260901043256 | 73 | 296 | 0.0 | 0.0 | 0.00 | 0.00 | 0.00 | 82 | 1018.1 |
| 20260901042755 | 73 | 296 | 0.0 | 0.0 | 0.00 | 0.00 | 0.00 | 82 | 1018.1 |
| 20260901042250 | 73 | 296 | 0.0 | 0.0 | 0.00 | 0.00 | 0.00 | 83 | 1017.6 |
| 20260901041745 | 73 | 296 | 0.0 | 0.0 | 0.00 | 0.00 | 0.00 | 82 | 1017.6 |
| 20260901041246 | 73 | 296 | 0.0 | 0.0 | 0.00 | 0.00 | 0.00 | 82 | 1017.6 |
| 20260901040735 | 73 | 296 | 0.0 | 0.0 | 0.00 | 0.00 | 0.00 | 82 | 1018.1 |
| 20260901040233 | 73 | 296 | 0.0 | 0.0 | 0.00 | 0.00 | 0.00 | 82 | 1017.6 |
| 20260901035732 | 74 | 296 | 0.0 | 0.0 | 0.00 | 0.00 | 0.00 | 81 | 1018.1 |
| 20260901035226 | 74 | 296 | 0.0 | 0.0 | 0.00 | 0.00 | 0.00 | 81 | 1018.1 |
| 20260901034720 | 74 | 296 | 0.0 | 0.0 | 0.00 | 0.00 | 0.00 | 80 | 1018.1 |
| 20260901034215 | 74 | 296 | 0.0 | 0.0 | 0.00 | 0.00 | 0.00 | 80 | 1017.6 |
| 20260901033714 | 74 | 296 | 0.0 | 0.0 | 0.00 | 0.00 | 0.00 | 79 | 1017.6 |
| 20260901033208 | 75 | 296 | 0.0 | 0.0 | 0.00 | 0.00 | 0.00 | 79 | 1018.1 |
| 20260901032707 | 75 | 296 | 0.0 | 0.0 | 0.00 | 0.00 | 0.00 | 78 | 1017.6 |
| 20260901032201 | 75 | 296 | 0.0 | 0.0 | 0.00 | 0.00 | 0.00 | 78 | 1017.3 |
| 20260901031657 | 75 | 296 | 0.0 | 0.0 | 0.00 | 0.00 | 0.00 | 78 | 1017.6 |
| 20260901031152 | 75 | 296 | 0.0 | 0.0 | 0.00 | 0.00 | 0.00 | 77 | 1017.6 |
| 20260901030647 | 75 | 296 | 0.0 | 0.0 | 0.00 | 0.00 | 0.00 | 77 | 1017.6 |
| 20260901030141 | 76 | 296 | 0.0 | 0.0 | 0.00 | 0.00 | 0.00 | 76 | 1017.6 |
| 20260901025635 | 76 | 296 | 0.0 | 0.0 | 0.00 | 0.00 | 0.00 | 76 | 1017.6 |
| 20260901025130 | 76 | 296 | 0.0 | 0.0 | 0.00 | 0.00 | 0.00 | 76 | 1017.6 |
| 20260901024625 | 76 | 296 | 0.0 | 0.0 | 0.00 | 0.00 | 0.00 | 75 | 1017.3 |
| 20260901024124 | 76 | 296 | 0.0 | 0.0 | 0.00 | 0.00 | 0.00 | 75 | 1017.6 |
| 20260901023623 | 77 | 296 | 0.0 | 0.0 | 0.00 | 0.00 | 0.00 | 74 | 1017.6 |
| 20260901023118 | 77 | 296 | 0.0 | 0.0 | 0.00 | 0.00 | 0.00 | 74 | 1017.6 |
| 20260901022613 | 77 | 296 | 0.0 | 0.0 | 0.00 | 0.00 | 0.00 | 73 | 1017.3 |
| 20260901022108 | 77 | 296 | 0.0 | 0.0 | 0.00 | 0.00 | 0.00 | 73 | 1017.3 |
| 20260901021604 | 77 | 296 | 0.0 | 0.0 | 0.00 | 0.00 | 0.00 | 72 | 1017.3 |
| 20260901021059 | 78 | 296 | 0.0 | 0.0 | 0.00 | 0.00 | 0.00 | 72 | 1017.3 |
| 20260901020554 | 78 | 296 | 0.0 | 0.0 | 0.00 | 0.00 | 0.00 | 71 | 1017.0 |
| 20260901020049 | 78 | 295 | 0.0 | 0.0 | 0.00 | 0.00 | 0.00 | 69 | 1017.0 |
| 20260901015544 | 79 | 296 | 0.0 | 0.0 | 0.00 | 0.00 | 0.00 | 69 | 1017.0 |
| 20260901015039 | 79 | 296 | 0.0 | 0.0 | 0.00 | 0.00 | 0.00 | 69 | 1017.0 |
| 20260901014534 | 79 | 296 | 0.0 | 0.0 | 0.00 | 0.00 | 0.00 | 68 | 1017.0 |
| 20260901014030 | 80 | 296 | 0.0 | 0.0 | 0.00 | 0.00 | 0.00 | 68 | 1017.0 |
| 20260901013526 | 80 | 296 | 0.0 | 0.0 | 0.00 | 0.00 | 0.00 | 66 | 1016.6 |
| 20260901013021 | 80 | 296 | 0.0 | 0.0 | 0.00 | 0.00 | 0.00 | 66 | 1017.0 |
| 20260901012521 | 80 | 296 | 0.0 | 0.0 | 0.00 | 0.00 | 0.00 | 65 | 1016.3 |
| 20260901012016 | 81 | 296 | 0.0 | 0.0 | 0.00 | 0.00 | 0.00 | 64 | 1016.6 |
| 20260901011513 | 81 | 296 | 0.0 | 0.0 | 0.00 | 0.00 | 0.00 | 64 | 1016.6 |
| 20260901011010 | 82 | 296 | 0.0 | 0.0 | 0.00 | 0.00 | 0.00 | 63 | 1016.6 |
| 20260901010506 | 82 | 296 | 0.0 | 0.0 | 0.00 | 0.00 | 0.00 | 62 | 1016.3 |
| 20260901010005 | 82 | 296 | 0.0 | 0.0 | 0.00 | 0.00 | 0.00 | 62 | 1016.3 |
| 20260901005500 | 83 | 296 | 0.0 | 0.0 | 0.00 | 0.00 | 0.00 | 60 | 1016.3 |
| 20260901004954 | 84 | 296 | 0.0 | 0.0 | 0.00 | 0.00 | 0.00 | 60 | 1016.3 |
| 20260901004454 | 84 | 305 | 1.0 | 1.0 | 0.00 | 0.00 | 0.00 | 58 | 1016.3 |
| 20260901003949 | 85 | 306 | 0.0 | 0.0 | 0.00 | 0.00 | 0.00 | 56 | 1016.3 |
| 20260901003444 | 85 | 305 | 0.0 | 0.0 | 0.00 | 0.00 | 0.00 | 55 | 1016.3 |
| 20260901002943 | 86 | 305 | 1.0 | 1.0 | 0.00 | 0.00 | 0.00 | 54 | 1016.3 |
| 20260901002442 | 87 | 305 | 1.0 | 1.0 | 0.00 | 0.00 | 0.00 | 51 | 1016.3 |
| 20260901001937 | 87 | 306 | 0.0 | 0.0 | 0.00 | 0.00 | 0.00 | 49 | 1015.9 |
| 20260901001432 | 88 | 305 | 0.0 | 0.0 | 0.00 | 0.00 | 0.00 | 48 | 1016.3 |
| 20260901000927 | 89 | 306 | 0.0 | 0.0 | 0.00 | 0.00 | 0.00 | 45 | 1016.3 |
| 20260901000422 | 90 | 306 | 0.0 | 0.0 | 0.00 | 0.00 | 0.00 | 44 | 1016.3 |
| 20260831235921 | 91 | 316 | 0.0 | 0.0 | 0.00 | 0.00 | 0.00 | 43 | 1016.3 |
| 20260831235417 | 92 | 316 | 0.0 | 0.0 | 0.00 | 0.00 | 0.00 | 41 | 1016.3 |
| 20260831234917 | 92 | 316 | 0.0 | 0.0 | 0.00 | 0.00 | 0.00 | 39 | 1016.3 |
| 20260831234412 | 93 | 316 | 0.0 | 0.0 | 0.00 | 0.00 | 0.00 | 38 | 1015.9 |
| 20260831233907 | 93 | 291 | 0.0 | 0.0 | 0.00 | 0.00 | 0.00 | 38 | 1016.3 |
| 20260831233402 | 93 | 291 | 0.0 | 0.0 | 0.00 | 0.00 | 0.00 | 38 | 1015.9 |
| 20260831232857 | 94 | 290 | 1.0 | 1.0 | 0.00 | 0.00 | 0.00 | 36 | 1016.3 |
| 20260831232353 | 94 | 285 | 0.0 | 0.0 | 0.00 | 0.00 | 0.00 | 36 | 1016.3 |
| 20260831231849 | 94 | 285 | 0.0 | 0.0 | 0.00 | 0.00 | 0.00 | 35 | 1016.3 |
| 20260831231345 | 95 | 308 | 0.0 | 0.0 | 0.00 | 0.00 | 0.00 | 35 | 1016.3 |
| 20260831230841 | 95 | 308 | 0.0 | 0.0 | 0.00 | 0.00 | 0.00 | 34 | 1016.3 |
| 20260831230335 | 95 | 308 | 0.0 | 0.0 | 0.00 | 0.00 | 0.00 | 34 | 1016.3 |
| 20260831225830 | 96 | 297 | 1.0 | 1.0 | 0.00 | 0.00 | 0.00 | 33 | 1015.9 |
| 20260831225324 | 96 | 319 | 0.0 | 0.0 | 0.00 | 0.00 | 0.00 | 32 | 1016.3 |
| 20260831224820 | 96 | 348 | 1.0 | 1.0 | 0.00 | 0.00 | 0.00 | 31 | 1016.3 |
| 20260831224314 | 96 | 314 | 0.0 | 0.0 | 0.00 | 0.00 | 0.00 | 30 | 1016.3 |
| 20260831223809 | 97 | 308 | 1.0 | 1.0 | 0.00 | 0.00 | 0.00 | 30 | 1016.3 |
| 20260831223306 | 96 | 157 | 10.0 | 11.0 | 0.00 | 0.00 | 0.00 | 30 | 1016.3 |
| 20260831222802 | 96 | 307 | 1.0 | 1.0 | 0.00 | 0.00 | 0.00 | 30 | 1016.3 |
| 20260831222258 | 96 | 347 | 0.0 | 1.0 | 0.00 | 0.00 | 0.00 | 29 | 1016.3 |
| 20260831221753 | 97 | 16 | 3.0 | 3.0 | 0.00 | 0.00 | 0.00 | 28 | 1016.3 |
| 20260831221249 | 97 | 318 | 0.0 | 0.0 | 0.00 | 0.00 | 0.00 | 29 | 1016.3 |
| 20260831220748 | 98 | 294 | 0.0 | 1.0 | 0.00 | 0.00 | 0.00 | 28 | 1016.3 |
| 20260831220244 | 98 | 260 | 2.0 | 2.0 | 0.00 | 0.00 | 0.00 | 27 | 1016.3 |
| 20260831215738 | 98 | 161 | 3.0 | 3.0 | 0.00 | 0.00 | 0.00 | 27 | 1016.3 |
| 20260831215235 | 99 | 311 | 1.0 | 1.0 | 0.00 | 0.00 | 0.00 | 26 | 1016.3 |
| 20260831214731 | 99 | 246 | 2.0 | 2.0 | 0.00 | 0.00 | 0.00 | 26 | 1016.3 |
| 20260831214228 | 99 | 166 | 6.0 | 7.0 | 0.00 | 0.00 | 0.00 | 27 | 1016.3 |
| 20260831213724 | 100 | 204 | 3.0 | 5.0 | 0.00 | 0.00 | 0.00 | 27 | 1016.3 |
| 20260831213220 | 100 | 268 | 1.0 | 1.0 | 0.00 | 0.00 | 0.00 | 28 | 1016.3 |
| 20260831212715 | 101 | 235 | 2.0 | 2.0 | 0.00 | 0.00 | 0.00 | 28 | 1016.3 |
| 20260831212212 | 101 | 319 | 2.0 | 1.0 | 0.00 | 0.00 | 0.00 | 28 | 1016.3 |
| 20260831211710 | 102 | 272 | 3.0 | 3.0 | 0.00 | 0.00 | 0.00 | 27 | 1016.3 |
| 20260831211205 | 103 | 291 | 1.0 | 1.0 | 0.00 | 0.00 | 0.00 | 28 | 1016.6 |
| 20260831210705 | 102 | 335 | 1.0 | 1.0 | 0.00 | 0.00 | 0.00 | 28 | 1016.6 |
| 20260831210201 | 102 | 175 | 3.0 | 5.0 | 0.00 | 0.00 | 0.00 | 28 | 1016.6 |
| 20260831205700 | 102 | 298 | 1.0 | 1.0 | 0.00 | 0.00 | 0.00 | 28 | 1016.3 |
| 20260831205156 | 101 | 323 | 1.0 | 1.0 | 0.00 | 0.00 | 0.00 | 28 | 1016.6 |
| 20260831204651 | 102 | 217 | 2.0 | 3.0 | 0.00 | 0.00 | 0.00 | 28 | 1016.6 |
| 20260831204150 | 102 | 294 | 3.0 | 5.0 | 0.00 | 0.00 | 0.00 | 28 | 1016.6 |
| 20260831203649 | 102 | 350 | 2.0 | 3.0 | 0.00 | 0.00 | 0.00 | 27 | 1016.6 |
| 20260831203144 | 101 | 264 | 4.0 | 5.0 | 0.00 | 0.00 | 0.00 | 29 | 1017.0 |
| 20260831202643 | 101 | 222 | 2.0 | 2.0 | 0.00 | 0.00 | 0.00 | 29 | 1016.6 |
| 20260831202138 | 100 | 247 | 3.0 | 2.0 | 0.00 | 0.00 | 0.00 | 29 | 1016.6 |
| 20260831201636 | 101 | 154 | 1.0 | 1.0 | 0.00 | 0.00 | 0.00 | 28 | 1016.6 |
| 20260831201131 | 102 | 218 | 3.0 | 2.0 | 0.00 | 0.00 | 0.00 | 27 | 1017.3 |
| 20260831200627 | 101 | 152 | 4.0 | 3.0 | 0.00 | 0.00 | 0.00 | 27 | 1017.0 |
| 20260831200122 | 101 | 175 | 5.0 | 6.0 | 0.00 | 0.00 | 0.00 | 27 | 1017.0 |
| 20260831195617 | 102 | 133 | 10.0 | 14.0 | 0.00 | 0.00 | 0.00 | 27 | 1017.3 |
| 20260831195112 | 102 | 331 | 3.0 | 3.0 | 0.00 | 0.00 | 0.00 | 27 | 1017.0 |
| 20260831194607 | 101 | 304 | 1.0 | 1.0 | 0.00 | 0.00 | 0.00 | 28 | 1017.3 |
| 20260831194102 | 102 | 142 | 7.0 | 7.0 | 0.00 | 0.00 | 0.00 | 27 | 1017.0 |
| 20260831193557 | 102 | 283 | 2.0 | 2.0 | 0.00 | 0.00 | 0.00 | 27 | 1017.0 |
| 20260831193057 | 102 | 151 | 6.0 | 8.0 | 0.00 | 0.00 | 0.00 | 27 | 1017.3 |
| 20260831192552 | 101 | 195 | 3.0 | 3.0 | 0.00 | 0.00 | 0.00 | 29 | 1017.3 |
| 20260831192048 | 102 | 27 | 3.0 | 3.0 | 0.00 | 0.00 | 0.00 | 28 | 1017.3 |
| 20260831191543 | 102 | 291 | 2.0 | 2.0 | 0.00 | 0.00 | 0.00 | 30 | 1017.3 |
| 20260831191039 | 100 | 173 | 3.0 | 3.0 | 0.00 | 0.00 | 0.00 | 29 | 1017.3 |
| 20260831190535 | 101 | 250 | 3.0 | 3.0 | 0.00 | 0.00 | 0.00 | 29 | 1017.6 |
| 20260831190033 | 101 | 329 | 2.0 | 2.0 | 0.00 | 0.00 | 0.00 | 29 | 1017.6 |
| 20260831185529 | 100 | 228 | 1.0 | 3.0 | 0.00 | 0.00 | 0.00 | 30 | 1017.6 |
| 20260831185025 | 100 | 59 | 2.0 | 3.0 | 0.00 | 0.00 | 0.00 | 30 | 1017.6 |
| 20260831184519 | 101 | 248 | 1.0 | 2.0 | 0.00 | 0.00 | 0.00 | 30 | 1018.1 |
| 20260831184014 | 100 | 325 | 2.0 | 2.0 | 0.00 | 0.00 | 0.00 | 30 | 1017.6 |
| 20260831183508 | 100 | 230 | 3.0 | 3.0 | 0.00 | 0.00 | 0.00 | 30 | 1018.1 |
| 20260831183007 | 99 | 82 | 3.0 | 3.0 | 0.00 | 0.00 | 0.00 | 32 | 1018.1 |
| 20260831182502 | 100 | 183 | 7.0 | 7.0 | 0.00 | 0.00 | 0.00 | 31 | 1018.1 |
| 20260831181957 | 100 | 104 | 3.0 | 3.0 | 0.00 | 0.00 | 0.00 | 31 | 1018.1 |
| 20260831181446 | 100 | 233 | 0.0 | 1.0 | 0.00 | 0.00 | 0.00 | 31 | 1018.1 |
| 20260831180941 | 99 | 292 | 3.0 | 3.0 | 0.00 | 0.00 | 0.00 | 33 | 1018.1 |
| 20260831180441 | 98 | 137 | 5.0 | 5.0 | 0.00 | 0.00 | 0.00 | 33 | 1018.4 |
| 20260831175941 | 100 | 313 | 1.0 | 2.0 | 0.00 | 0.00 | 0.00 | 32 | 1018.4 |
| 20260831175437 | 99 | 310 | 0.0 | 0.0 | 0.00 | 0.00 | 0.00 | 33 | 1018.4 |
| 20260831174933 | 100 | 242 | 4.0 | 3.0 | 0.00 | 0.00 | 0.00 | 32 | 1018.4 |
| 20260831174428 | 99 | 186 | 3.0 | 3.0 | 0.00 | 0.00 | 0.00 | 32 | 1018.8 |
| 20260831173927 | 99 | 137 | 4.0 | 7.0 | 0.00 | 0.00 | 0.00 | 34 | 1018.8 |
| 20260831173426 | 98 | 120 | 2.0 | 2.0 | 0.00 | 0.00 | 0.00 | 34 | 1018.8 |
| 20260831172922 | 99 | 165 | 5.0 | 5.0 | 0.00 | 0.00 | 0.00 | 34 | 1018.8 |
| 20260831172418 | 99 | 205 | 4.0 | 5.0 | 0.00 | 0.00 | 0.00 | 34 | 1018.8 |
| 20260831171917 | 98 | 235 | 2.0 | 3.0 | 0.00 | 0.00 | 0.00 | 34 | 1019.1 |